Location: Sungai Buloh
(3.1000°N, 113.0000°E)
Time: 16:23:33
(UTC+00:00)

COBE Rocket - Pass Details

Date: 12 January 2026
Orbit: 675 x 772 km, 97.1° (Epoch: 10 February)

Event Time Altitude Azimuth Distance (km) Brightness Sun altitude
Exits shadow 12:09:35 50° 29° (NNE) 954 4.1 -22.8°
Maximum altitude 12:10:53 76° 101° (E) 773 3.8 -23.1°
Drops below altitude 10° 12:15:48 10° 186° (S) 2,236 6.7 -24.2°
Sets 12:18:04 0° 188° (S) 3,144 7.6 -24.7°
